Flag for Australia Weather past 2 weeks in Bairnsdale, Victoria, Australia

Now
55 °F

Cool.


Feels Like: 53 °F
Forecast: 41 / 58 °F
Wind: 8 mph from East

Location: Bairnsdale Airport

Current Time: Jul 31, 2015 at 5:26:03 PM

Latest Report: Jul 31, 2015 at 3:00 PM


Visibility: N/A

Pressure: 30.04 "Hg

Humidity: 57%

Dew point: 40 °F

Location of BairnsdaleLocation

Historic Weather in Bairnsdale — Graph

°F

Bairnsdale temperature yesterday

Maximum temperature yesterday: 57 °F (at 12:00 PM)
Minimum temperature yesterday: 34 °F (at 6:00 AM)
Average temperature yesterday: 48 °F

Past Weeks' High & Low Weather Summary

 TemperatureHumidityPressure
High63 °F (Jul 21, 2:00 PM)100% (Jul 19, 5:00 AM)30.54 "Hg (Jul 19, 5:00 AM)
Low31 °F (Jul 20, 6:00 AM)38% (Jul 21, 2:00 PM)29.72 "Hg (Jul 26, 3:00 AM)
Average47 °F77%30.21 "Hg
* Reported Jul 16 3:00 PM — Jul 31 3:00 PM, Bairnsdale, Weather by CustomWeather, © 2015

Note: Actual official high and low records may vary slightly from our data, if they occured in-between our weather recording intervals... More about our weather records

Advertising

Bairnsdale weather history for previous 24 hours

 ConditionsComfort  
Time TempWeatherWind HumidityBarometerVisibility
3:00 PM
Fri, Jul 31
55 °FCool.8 mph57%30.04 "HgN/A
2:00 PM55 °FCool.6 mph51%30.06 "HgN/A
12:00 PM54 °FCool.5 mph53%30.12 "HgN/A
11:00 AM53 °FCool.8 mph58%30.15 "HgN/A
9:00 AM47 °FCool.7 mph74%30.14 "HgN/A
8:00 AM42 °FQuite cool.6 mph88%30.13 "HgN/A
6:00 AM44 °FPassing clouds.10 mph78%30.08 "HgN/A
5:00 AM46 °FCool.12 mph74%30.07 "HgN/A
3:00 AM49 °FOvercast.16 mph64%30.04 "HgN/A
2:00 AM51 °FCool.18 mph57%30.03 "HgN/A
12:00 AM52 °FOvercast.13 mph57%29.99 "HgN/A
11:00 PM
Thu, Jul 30
52 °FCool.13 mph57%29.97 "HgN/A
9:00 PM54 °FOvercast.16 mph51%29.93 "HgN/A
8:00 PM54 °FCool.14 mph49%29.90 "HgN/A
6:00 PM55 °FOvercast.20 mph47%29.89 "HgN/A
5:00 PM55 °FCool.15 mph50%29.90 "HgN/A
Weather by CustomWeather, © 2015

See weather overviewHow to use our weather pages